Weather History for KMDS - September, 2013

Change the Weather History Date:

Tuesday, September 3, 2013

  Actual Average Record
Temperature  
Mean Temperature 66 °F -  
Max Temperature 82 °F 79 °F 87 °F (2012)
Min Temperature 51 °F 55 °F 48 °F (2010)
Cooling Degree Days 2    
Growing Degree Days 16 (Base 50)    
Moisture  
Dew Point 61 °F    
Average Humidity 82    
Maximum Humidity 100    
Minimum Humidity 51    
Precipitation  
Precipitation 0.00 in - - ()
Sea Level Pressure  
Sea Level Pressure 30.04 in    
Wind  
Wind Speed 8 mph (South)    
Max Wind Speed 16 mph    
Max Gust Speed 23 mph    
Visibility 10 miles    
Events      
Averages and records for this station are not official NWS values.
T = Trace of Precipitation, MM = Missing Value Source: NWS Daily Summary

Daily Weather History Graph

Daily Weather History Graph

Search for Another Location

Airport or City:

Trip Planner

Search our weather history database for the weather conditions in past years. The results will help you decide how hot, cold, wet, or windy it might be!

Date:

Astronomy

Sep. 03, 2013 Rise Set
Actual Time 6:54 AM CDT 8:00 PM CDT
Civil Twilight 6:24 AM CDT 8:29 PM CDT
Nautical Twilight 5:49 AM CDT 9:04 PM CDT
Astronomical Twilight 5:11 AM CDT 9:42 PM CDT
Moon 5:07 AM CDT (9/3) 6:48 PM CDT (9/3)
Length of Visible Light 14h 05m
Length of Day
13h 05m
Waning Crescent, 3% of the Moon is Illuminated
Sep 3
Waning Crescent
Sep 5
New
Sep 12
First Quarter
Sep 19
Full
Sep 26
Last Quarter

Hourly Weather History & Observations

Time (CDT) Temp. Heat Index Dew Point Humidity Pressure Visibility Wind Dir Wind Speed Gust Speed Precip Events Conditions
12:10 AM 53.6 °F - 53.6 °F 100% 30.05 in 10.0 mi ESE 4.6 mph - N/A   Clear
12:30 AM 51.8 °F - 51.8 °F 100% 30.05 in 10.0 mi ESE 4.6 mph - N/A   Clear
12:50 AM 53.6 °F - 53.6 °F 100% 30.05 in 10.0 mi SE 3.5 mph - N/A   Clear
1:10 AM 53.6 °F - 53.6 °F 100% 30.05 in 10.0 mi SSE 6.9 mph - N/A   Clear
1:30 AM 53.6 °F - 53.6 °F 100% 30.05 in 10.0 mi South 4.6 mph - N/A   Clear
1:50 AM 53.6 °F - 53.6 °F 100% 30.06 in 10.0 mi South 6.9 mph - N/A   Clear
2:10 AM 51.8 °F - 51.8 °F 100% 30.06 in 10.0 mi South 6.9 mph - N/A   Clear
2:30 AM 53.6 °F - 53.6 °F 100% 30.06 in 10.0 mi South 6.9 mph - N/A   Clear
2:50 AM 53.6 °F - 53.6 °F 100% 30.06 in 10.0 mi South 5.8 mph - N/A   Clear
3:10 AM 53.6 °F - 53.6 °F 100% 30.07 in 10.0 mi South 5.8 mph - N/A   Clear
3:30 AM 53.6 °F - 53.6 °F 100% 30.07 in 10.0 mi South 4.6 mph - N/A   Clear
3:50 AM 51.8 °F - 51.8 °F 100% 30.07 in 10.0 mi South 5.8 mph - N/A   Clear
4:10 AM 53.6 °F - 53.6 °F 100% 30.07 in 10.0 mi SSE 5.8 mph - N/A   Clear
4:30 AM 53.6 °F - 53.6 °F 100% 30.07 in 10.0 mi South 6.9 mph - N/A   Clear
4:50 AM 53.6 °F - 53.6 °F 100% 30.07 in 10.0 mi South 8.1 mph - N/A   Clear
5:10 AM 53.6 °F - 53.6 °F 100% 30.07 in 10.0 mi South 6.9 mph - N/A   Clear
5:30 AM 53.6 °F - 53.6 °F 100% 30.07 in 10.0 mi South 6.9 mph - N/A   Clear
5:50 AM 53.6 °F - 53.6 °F 100% 30.07 in 10.0 mi South 5.8 mph - N/A   Clear
6:10 AM 53.6 °F - 53.6 °F 100% 30.07 in 10.0 mi South 8.1 mph - N/A   Clear
6:30 AM 55.4 °F - 55.4 °F 100% 30.07 in 10.0 mi South 9.2 mph - N/A   Clear
6:50 AM 55.4 °F - 55.4 °F 100% 30.07 in 10.0 mi South 8.1 mph - N/A   Clear
7:10 AM 55.4 °F - 55.4 °F 100% 30.07 in 10.0 mi South 6.9 mph - N/A   Clear
7:30 AM 55.4 °F - 55.4 °F 100% 30.07 in 10.0 mi South 6.9 mph - N/A   Clear
7:50 AM 57.2 °F - 57.2 °F 100% 30.06 in 10.0 mi South 9.2 mph - N/A   Clear
8:10 AM 59.0 °F - 57.2 °F 94% 30.07 in 10.0 mi South 9.2 mph - N/A   Clear
8:30 AM 59.0 °F - 59.0 °F 100% 30.07 in 10.0 mi South 9.2 mph - N/A   Clear
8:50 AM 62.6 °F - 59.0 °F 88% 30.07 in 10.0 mi South 9.2 mph - N/A   Clear
9:10 AM 64.4 °F - 59.0 °F 83% 30.07 in 10.0 mi South 10.4 mph - N/A   Clear
9:30 AM 66.2 °F - 59.0 °F 78% 30.07 in 10.0 mi SSE 11.5 mph - N/A   Clear
9:50 AM 68.0 °F - 57.2 °F 68% 30.06 in 10.0 mi South 12.7 mph - N/A   Clear
10:10 AM 69.8 °F - 59.0 °F 68% 30.06 in 10.0 mi South 12.7 mph - N/A   Clear
10:30 AM 71.6 °F - 59.0 °F 64% 30.06 in 10.0 mi South 13.8 mph 17.3 mph N/A   Clear
10:50 AM 73.4 °F - 59.0 °F 61% 30.05 in 10.0 mi South 13.8 mph - N/A   Clear
11:10 AM 75.2 °F - 59.0 °F 57% 30.05 in 10.0 mi South 11.5 mph 18.4 mph N/A   Clear
11:30 AM 75.2 °F - 59.0 °F 57% 30.04 in 10.0 mi South 11.5 mph 17.3 mph N/A   Clear
11:50 AM 75.2 °F - 60.8 °F 61% 30.04 in 10.0 mi South 13.8 mph 19.6 mph N/A   Clear
12:10 PM 77.0 °F - 62.6 °F 61% 30.03 in 10.0 mi South 11.5 mph 19.6 mph N/A   Clear
12:30 PM 77.0 °F - 62.6 °F 61% 30.03 in 10.0 mi SSE 13.8 mph - N/A   Clear
12:50 PM 80.6 °F 81.8 °F 62.6 °F 54% 30.03 in 10.0 mi South 15.0 mph 19.6 mph N/A   Clear
1:10 PM 80.6 °F 81.8 °F 62.6 °F 54% 30.02 in 10.0 mi South 13.8 mph 21.9 mph N/A   Clear
1:30 PM 78.8 °F - 62.6 °F 57% 30.02 in 10.0 mi South 12.7 mph 19.6 mph N/A   Clear
1:50 PM 80.6 °F 81.8 °F 62.6 °F 54% 30.02 in 10.0 mi South 16.1 mph 20.7 mph N/A   Clear
2:10 PM 82.4 °F 83.4 °F 62.6 °F 51% 30.01 in 10.0 mi SSW 16.1 mph 21.9 mph N/A   Clear
2:30 PM 82.4 °F 83.4 °F 62.6 °F 51% 30.01 in 10.0 mi SSW 13.8 mph 19.6 mph N/A   Clear
2:50 PM 82.4 °F 83.4 °F 62.6 °F 51% 30.01 in 10.0 mi South 16.1 mph 23.0 mph N/A   Clear
3:10 PM 82.4 °F 83.9 °F 64.4 °F 54% 30.01 in 10.0 mi South 11.5 mph 18.4 mph N/A   Clear
3:30 PM 80.6 °F 82.3 °F 64.4 °F 58% 30.01 in 10.0 mi SSW 11.5 mph - N/A   Clear
3:50 PM 80.6 °F 82.3 °F 64.4 °F 58% 30.01 in 10.0 mi SSW 11.5 mph 18.4 mph N/A   Clear
4:10 PM 80.6 °F 82.3 °F 64.4 °F 58% 30.01 in 10.0 mi South 12.7 mph 21.9 mph N/A   Clear
4:30 PM 80.6 °F 82.7 °F 66.2 °F 61% 30.01 in 10.0 mi South 10.4 mph - N/A   Clear
4:50 PM 80.6 °F 82.7 °F 66.2 °F 61% 30.01 in 10.0 mi South 10.4 mph - N/A   Clear
5:10 PM 80.6 °F 82.7 °F 66.2 °F 61% 30.00 in 10.0 mi South 11.5 mph - N/A   Clear
5:30 PM 80.6 °F 82.7 °F 66.2 °F 61% 30.01 in 10.0 mi South 13.8 mph 18.4 mph N/A   Clear
5:50 PM 78.8 °F - 66.2 °F 65% 30.01 in 10.0 mi SSW 10.4 mph - N/A   Clear
6:10 PM 78.8 °F - 66.2 °F 65% 30.00 in 10.0 mi South 12.7 mph - N/A   Clear
6:30 PM 77.0 °F - 66.2 °F 69% 30.00 in 10.0 mi South 8.1 mph - N/A   Clear
6:50 PM 75.2 °F - 66.2 °F 73% 30.00 in 10.0 mi South 9.2 mph - N/A   Clear
7:10 PM 75.2 °F - 68.0 °F 78% 30.01 in 10.0 mi SSE 6.9 mph - N/A   Clear
7:30 PM 73.4 °F - 68.0 °F 83% 30.01 in 10.0 mi SE 5.8 mph - N/A   Clear
7:50 PM 73.4 °F - 68.0 °F 83% 30.01 in 10.0 mi SSE 6.9 mph - N/A   Clear
8:10 PM 73.4 °F - 69.8 °F 88% 30.01 in 10.0 mi SSE 5.8 mph - N/A   Clear
8:30 PM 73.4 °F - 69.8 °F 88% 30.01 in 10.0 mi SSE 8.1 mph - N/A   Clear
8:50 PM 71.6 °F - 69.8 °F 94% 30.01 in 10.0 mi SSE 8.1 mph - N/A   Clear
9:10 PM 71.6 °F - 69.8 °F 94% 30.02 in 10.0 mi SSE 8.1 mph - N/A   Clear
9:30 PM 71.6 °F - 71.6 °F 100% 30.02 in 10.0 mi SSE 9.2 mph - N/A   Clear
9:50 PM 69.8 °F - 69.8 °F 100% 30.03 in 10.0 mi South 6.9 mph - N/A   Clear
10:10 PM 68.0 °F - 68.0 °F 100% 30.03 in 10.0 mi South 8.1 mph - N/A   Clear
10:30 PM 68.0 °F - 68.0 °F 100% 30.03 in 10.0 mi South 6.9 mph - N/A   Clear
10:50 PM 68.0 °F - 68.0 °F 100% 30.03 in 10.0 mi South 5.8 mph - N/A   Clear
11:10 PM 68.0 °F - 68.0 °F 100% 30.04 in 10.0 mi South 5.8 mph - N/A   Clear
11:30 PM 66.2 °F - 66.2 °F 100% 30.04 in 10.0 mi SSE 5.8 mph - N/A   Clear
11:50 PM 66.2 °F - 66.2 °F 100% 30.04 in 10.0 mi South 6.9 mph - N/A   Clear